TimeEST,TemperatureF,Dew PointF,Humidity,Sea Level PressureIn,VisibilityMPH,Wind Direction,Wind SpeedMPH,Gust SpeedMPH,PrecipitationIn,Events,Conditions,WindDirDegrees,DateUTC
12:15 AM,24.3,21.0,87,30.20,10.0,Calm,Calm,-,N/A,,Clear,0,2012-12-23 05:15:00
12:35 AM,23.7,21.7,92,30.20,10.0,Calm,Calm,-,N/A,,Clear,0,2012-12-23 05:35:00
12:55 AM,21.6,19.9,93,30.19,10.0,Calm,Calm,-,N/A,,Clear,0,2012-12-23 05:55:00
1:15 AM,23.4,21.0,91,30.18,10.0,Calm,Calm,-,N/A,,Clear,0,2012-12-23 06:15:00
1:35 AM,22.3,20.3,92,30.19,10.0,Calm,Calm,-,N/A,,Clear,0,2012-12-23 06:35:00
1:55 AM,21.9,20.1,93,30.19,10.0,Calm,Calm,-,N/A,,Clear,0,2012-12-23 06:55:00
2:15 AM,22.6,20.8,93,30.19,10.0,Calm,Calm,-,N/A,,Clear,0,2012-12-23 07:15:00
2:35 AM,22.5,20.5,92,30.19,10.0,Calm,Calm,-,N/A,,Clear,0,2012-12-23 07:35:00
2:55 AM,22.3,20.7,93,30.19,10.0,Calm,Calm,-,N/A,,Clear,0,2012-12-23 07:55:00
3:15 AM,21.6,20.3,95,30.19,10.0,Calm,Calm,-,N/A,,Clear,0,2012-12-23 08:15:00
3:35 AM,21.4,20.1,95,30.19,10.0,Calm,Calm,-,N/A,,Clear,0,2012-12-23 08:35:00
3:55 AM,21.4,19.6,93,30.19,10.0,Calm,Calm,-,N/A,,Clear,0,2012-12-23 08:55:00
4:15 AM,21.4,19.8,93,30.19,10.0,Calm,Calm,-,N/A,,Clear,0,2012-12-23 09:15:00
4:35 AM,20.5,18.9,93,30.19,10.0,Calm,Calm,-,N/A,,Clear,0,2012-12-23 09:35:00
4:55 AM,21.6,20.1,94,30.19,10.0,Calm,Calm,-,N/A,,Clear,0,2012-12-23 09:55:00
5:15 AM,21.7,20.3,94,30.19,10.0,Calm,Calm,-,N/A,,Clear,0,2012-12-23 10:15:00
5:35 AM,21.0,19.6,94,30.18,10.0,Calm,Calm,-,N/A,,Clear,0,2012-12-23 10:35:00
5:55 AM,20.7,19.2,94,30.19,10.0,Calm,Calm,-,N/A,,Clear,0,2012-12-23 10:55:00
6:15 AM,20.1,18.9,95,30.19,10.0,Calm,Calm,-,N/A,,Clear,0,2012-12-23 11:15:00
6:35 AM,20.7,19.4,95,30.19,10.0,Calm,Calm,-,N/A,,Clear,0,2012-12-23 11:35:00
7:15 AM,20.8,19.4,94,30.19,10.0,Calm,Calm,-,N/A,,Clear,0,2012-12-23 12:15:00
7:35 AM,20.1,18.7,94,30.19,10.0,Calm,Calm,-,N/A,,Clear,0,2012-12-23 12:35:00
7:55 AM,20.5,19.0,94,30.19,10.0,Calm,Calm,-,N/A,,Clear,0,2012-12-23 12:55:00
8:15 AM,21.2,19.9,95,30.20,10.0,Calm,Calm,-,N/A,,Clear,0,2012-12-23 13:15:00
8:35 AM,21.7,20.3,94,30.20,10.0,Calm,Calm,-,N/A,,Clear,0,2012-12-23 13:35:00
8:55 AM,23.0,21.2,93,30.19,10.0,Calm,Calm,-,N/A,,Clear,0,2012-12-23 13:55:00
9:15 AM,24.1,22.1,92,30.19,10.0,Calm,Calm,-,N/A,,Clear,0,2012-12-23 14:15:00
9:35 AM,25.2,22.6,90,30.19,10.0,Calm,Calm,-,N/A,,Clear,0,2012-12-23 14:35:00
9:55 AM,26.4,23.5,89,30.19,10.0,Calm,Calm,-,N/A,,Clear,0,2012-12-23 14:55:00
10:15 AM,27.5,23.5,85,30.20,10.0,Calm,Calm,-,N/A,,Scattered Clouds,0,2012-12-23 15:15:00
10:35 AM,29.1,24.6,83,30.19,10.0,Calm,Calm,-,N/A,,Clear,0,2012-12-23 15:35:00
10:55 AM,31.1,25.0,78,30.18,10.0,Calm,Calm,-,N/A,,Clear,0,2012-12-23 15:55:00
11:15 AM,32.7,26.4,78,30.18,10.0,Calm,Calm,-,N/A,,Clear,0,2012-12-23 16:15:00
11:35 AM,35.4,27.0,71,30.16,10.0,Calm,Calm,-,N/A,,Clear,0,2012-12-23 16:35:00
11:55 AM,37.8,26.2,63,30.15,10.0,Calm,Calm,-,N/A,,Clear,0,2012-12-23 16:55:00
12:15 PM,40.1,24.3,53,30.14,10.0,Calm,Calm,-,N/A,,Clear,0,2012-12-23 17:15:00
12:35 PM,41.7,25.2,52,30.13,10.0,Calm,Calm,-,N/A,,Clear,0,2012-12-23 17:35:00
12:55 PM,44.2,25.0,47,30.11,10.0,Calm,Calm,-,N/A,,Clear,0,2012-12-23 17:55:00
1:15 PM,47.5,25.3,42,30.09,10.0,Calm,Calm,-,N/A,,Clear,0,2012-12-23 18:15:00
1:35 PM,49.8,24.8,38,30.08,10.0,Calm,Calm,-,N/A,,Clear,0,2012-12-23 18:35:00
1:55 PM,50.0,24.4,37,30.07,10.0,Calm,Calm,-,N/A,,Clear,0,2012-12-23 18:55:00
2:15 PM,51.8,26.1,37,30.07,10.0,WSW,3.5,-,N/A,,Scattered Clouds,250,2012-12-23 19:15:00
2:35 PM,51.1,27.1,40,30.07,10.0,West,3.5,-,N/A,,Mostly Cloudy,270,2012-12-23 19:35:00
2:55 PM,51.4,26.6,38,30.06,10.0,Calm,Calm,-,N/A,,Overcast,0,2012-12-23 19:55:00
3:15 PM,52.0,28.8,41,30.06,10.0,WSW,3.5,-,N/A,,Overcast,250,2012-12-23 20:15:00
3:35 PM,51.6,29.8,43,30.06,10.0,West,3.5,-,N/A,,Overcast,280,2012-12-23 20:35:00
3:55 PM,50.7,29.8,45,30.06,10.0,NW,3.5,-,N/A,,Overcast,320,2012-12-23 20:55:00
4:15 PM,50.0,32.5,51,30.06,10.0,Calm,Calm,-,N/A,,Overcast,0,2012-12-23 21:15:00
4:35 PM,47.3,35.4,63,30.06,10.0,NW,6.9,-,N/A,,Overcast,320,2012-12-23 21:35:00
4:55 PM,47.8,34.3,60,30.06,10.0,Calm,Calm,-,N/A,,Overcast,0,2012-12-23 21:55:00
5:15 PM,46.6,36.9,69,30.06,10.0,Calm,Calm,-,N/A,,Overcast,0,2012-12-23 22:15:00
5:35 PM,45.9,37.6,73,30.06,10.0,Calm,Calm,-,N/A,,Overcast,0,2012-12-23 22:35:00
5:55 PM,44.8,38.3,78,30.06,10.0,Calm,Calm,-,N/A,,Overcast,0,2012-12-23 22:55:00
6:15 PM,44.8,38.1,77,30.07,10.0,Calm,Calm,-,N/A,,Overcast,0,2012-12-23 23:15:00
6:35 PM,44.1,38.7,81,30.07,10.0,Calm,Calm,-,N/A,,Overcast,0,2012-12-23 23:35:00
6:55 PM,43.9,38.5,81,30.07,10.0,Calm,Calm,-,N/A,,Overcast,0,2012-12-23 23:55:00
7:15 PM,43.7,38.3,81,30.07,10.0,Calm,Calm,-,N/A,,Overcast,0,2012-12-24 00:15:00
7:35 PM,43.9,38.3,81,30.07,10.0,Calm,Calm,-,N/A,,Overcast,0,2012-12-24 00:35:00
7:55 PM,42.8,38.8,86,30.07,10.0,Calm,Calm,-,N/A,,Overcast,0,2012-12-24 00:55:00
8:15 PM,43.0,38.7,85,30.07,10.0,Calm,Calm,-,N/A,,Overcast,0,2012-12-24 01:15:00
8:35 PM,43.2,37.0,79,30.07,10.0,Calm,Calm,-,N/A,,Overcast,0,2012-12-24 01:35:00
8:55 PM,42.8,38.3,84,30.07,10.0,Calm,Calm,-,N/A,,Overcast,0,2012-12-24 01:55:00
9:15 PM,42.8,38.7,85,30.06,10.0,Calm,Calm,-,N/A,,Overcast,0,2012-12-24 02:15:00
9:55 PM,41.5,38.3,88,30.07,10.0,Calm,Calm,-,N/A,,Overcast,0,2012-12-24 02:55:00
10:15 PM,41.9,38.3,87,30.07,10.0,Calm,Calm,-,N/A,,Overcast,0,2012-12-24 03:15:00
10:35 PM,41.4,38.7,90,30.06,10.0,Calm,Calm,-,N/A,,Overcast,0,2012-12-24 03:35:00
10:55 PM,41.9,38.7,88,30.06,10.0,Calm,Calm,-,N/A,,Overcast,0,2012-12-24 03:55:00
11:15 PM,42.3,37.9,85,30.06,10.0,Calm,Calm,-,N/A,,Overcast,0,2012-12-24 04:15:00
11:35 PM,41.5,38.7,89,30.07,10.0,Calm,Calm,-,N/A,,Overcast,0,2012-12-24 04:35:00
11:55 PM,41.2,39.4,93,30.07,7.0,Calm,Calm,-,0.01,,Overcast,0,2012-12-24 04:55:00